Location: Carella
(45.8167°N, 9.2667°E)
Time: 05:49:52
(UTC+00:00)

BREEZE-M DEB (TANK) - Pass Details

Date: 30 March 2020
Orbit: 320 x 11934 km, 49.7° (Epoch: 02 June)

Event Time Altitude Azimuth Distance (km) Brightness Sun altitude
Rises 18:50:29 0° 277° (W) 6,554 10.8 -11.2°
Reaches altitude 10° 18:56:34 10° 282° (WNW) 4,034 9.3 -12.2°
Maximum altitude 19:04:29 56° 0° (N) 821 4.4 -13.5°
Enters shadow 19:06:44 19° 75° (ENE) 1,243 4.8 -13.9°
